,,Stat6,,Stat2,,Stat8,,Stat9,,Stat10,,Wind1,,Wind1,
time,status,PA1M_AVG,status,PR1M_SUM,status,RH1M_AVG,status,SR1M_AVG,status,TA1M_AVG,status,W1dAve1m,status,W1sAve1m,
2004-02-10, 00:00:00,VALID,920.824,VALID,0,VALID,95.3398,VALID,0,VALID,19.7954,VALID,169,VALID,0.898056,
2004-02-10, 00:01:00,VALID,920.821,VALID,0,VALID,95.4034,VALID,0,VALID,19.7822,VALID,156,VALID,0.995536,
2004-02-10, 00:02:00,VALID,920.801,VALID,0,VALID,95.5064,VALID,0,VALID,19.7594,VALID,165,VALID,0.893714,
2004-02-10, 00:03:00,VALID,920.782,VALID,0,VALID,95.6069,VALID,0,VALID,19.7566,VALID,137,VALID,1.1183,
2004-02-10, 00:04:00,VALID,920.778,VALID,0,VALID,95.6692,VALID,0,VALID,19.7375,VALID,147,VALID,1.32336,
2004-02-10, 00:05:00,VALID,920.76,VALID,0,VALID,95.687,VALID,-0.0169808,VALID,19.7243,VALID,151,VALID,1.66738,
2004-02-10, 00:06:00,VALID,920.735,VALID,0,VALID,95.734,VALID,0,VALID,19.7181,VALID,136,VALID,1.59248,
2004-02-10, 00:07:00,VALID,920.722,VALID,0,VALID,95.6272,VALID,0,VALID,19.7209,VALID,125,VALID,1.70224,
2004-02-10, 00:08:00,VALID,920.698,VALID,0,VALID,95.4911,VALID,0,VALID,19.7437,VALID,119,VALID,1.72326,
2004-02-10, 00:09:00,VALID,920.676,VALID,0,VALID,95.3983,VALID,0,VALID,19.7959,VALID,136,VALID,2.37411,
2004-02-10, 00:10:00,VALID,920.653,VALID,0,VALID,95.0855,VALID,0,VALID,19.8441,VALID,142,VALID,1.89504,
2004-02-10, 00:11:00,VALID,920.625,VALID,0,VALID,94.7816,VALID,0,VALID,19.8992,VALID,138,VALID,2.11101,
2004-02-10, 00:12:00,VALID,920.614,VALID,0,VALID,94.4713,VALID,0,VALID,19.9536,VALID,137,VALID,1.89623,
2004-02-10, 00:13:00,VALID,920.608,VALID,0,VALID,94.2017,VALID,0,VALID,20.0192,VALID,146,VALID,1.54115,
2004-02-10, 00:14:00,VALID,920.623,VALID,0,VALID,94.0657,VALID,0,VALID,20.0448,VALID,149,VALID,1.59618,
2004-02-10, 00:15:00,VALID,920.637,VALID,0,VALID,94.0059,VALID,0.0169808,VALID,20.054,VALID,148,VALID,1.77782,
2004-02-10, 00:16:00,VALID,920.638,VALID,0,VALID,94.0072,VALID,-0.0169808,VALID,20.0502,VALID,139,VALID,1.36628,
2004-02-10, 00:17:00,VALID,920.663,VALID,0,VALID,93.9919,VALID,0,VALID,20.0537,VALID,136,VALID,0.87832,
2004-02-10, 00:18:00,VALID,920.659,VALID,0,VALID,94.0161,VALID,0,VALID,20.0376,VALID,136,VALID,1.48384,
2004-02-10, 00:19:00,VALID,920.657,VALID,0,VALID,93.9868,VALID,0,VALID,20.0281,VALID,137,VALID,1.21474,
2004-02-10, 00:20:00,VALID,920.633,VALID,0,VALID,94.0898,VALID,0,VALID,19.9991,VALID,144,VALID,1.39222,
2004-02-10, 00:21:00,VALID,920.59,VALID,0,VALID,94.2564,VALID,0,VALID,19.9732,VALID,146,VALID,1.36433,
2004-02-10, 00:22:00,VALID,920.558,VALID,0,VALID,94.4052,VALID,0,VALID,19.9312,VALID,130,VALID,1.44168,
2004-02-10, 00:23:00,VALID,920.53,VALID,0,VALID,94.3747,VALID,0,VALID,19.8893,VALID,129,VALID,1.39882,
2004-02-10, 00:24:00,VALID,920.515,VALID,0,VALID,94.4942,VALID,-0.0169808,VALID,19.8378,VALID,119,VALID,1.34162,
2004-02-10, 00:25:00,VALID,920.499,VALID,0,VALID,94.8223,VALID,-0.0339617,VALID,19.7827,VALID,127,VALID,1.38956,
2004-02-10, 00:26:00,VALID,920.491,VALID,0,VALID,94.9672,VALID,0,VALID,19.7574,VALID,120,VALID,1.50327,
2004-02-10, 00:27:00,VALID,920.473,VALID,0,VALID,94.98,VALID,0,VALID,19.702,VALID,110,VALID,1.41239,
2004-02-10, 00:28:00,VALID,920.467,VALID,0,VALID,95.3551,VALID,0,VALID,19.6511,VALID,124,VALID,1.74237,
2004-02-10, 00:29:00,VALID,920.47,VALID,0,VALID,95.6298,VALID,-0.0509425,VALID,19.6158,VALID,129,VALID,1.72366,
2004-02-10, 00:30:00,VALID,920.464,VALID,0,VALID,95.7658,VALID,-0.0679233,VALID,19.5966,VALID,132,VALID,1.49638,
2004-02-10, 00:31:00,VALID,920.466,VALID,0,VALID,95.8764,VALID,-0.0849042,VALID,19.587,VALID,132,VALID,1.93426,
2004-02-10, 00:32:00,VALID,920.48,VALID,0,VALID,95.9286,VALID,-0.0849042,VALID,19.5703,VALID,141,VALID,1.79008,
2004-02-10, 00:33:00,VALID,920.482,VALID,0,VALID,95.9629,VALID,-0.101885,VALID,19.587,VALID,135,VALID,1.91506,
2004-02-10, 00:34:00,VALID,920.489,VALID,0,VALID,95.8548,VALID,-0.118866,VALID,19.6098,VALID,137,VALID,1.96632,
2004-02-10, 00:35:00,VALID,920.495,VALID,0,VALID,95.7277,VALID,-0.101885,VALID,19.6327,VALID,142,VALID,1.44241,
2004-02-10, 00:36:00,VALID,920.466,VALID,0,VALID,95.6298,VALID,-0.0849042,VALID,19.6324,VALID,136,VALID,1.68883,
2004-02-10, 00:37:00,VALID,920.446,VALID,0,VALID,95.7175,VALID,-0.0679233,VALID,19.5996,VALID,136,VALID,1.67801,
2004-02-10, 00:38:00,VALID,920.42,VALID,0,VALID,95.907,VALID,-0.101885,VALID,19.5775,VALID,137,VALID,1.50586,
2004-02-10, 00:39:00,VALID,920.405,VALID,0,VALID,96.0735,VALID,-0.0849042,VALID,19.5355,VALID,131,VALID,1.92302,
2004-02-10, 00:40:00,VALID,920.374,VALID,0,VALID,96.2783,VALID,-0.101885,VALID,19.5102,VALID,123,VALID,1.81668,
2004-02-10, 00:41:01,VALID,920.371,VALID,0,VALID,96.0583,VALID,-0.101885,VALID,19.4652,VALID,112,VALID,1.45226,
2004-02-10, 00:42:00,VALID,920.38,VALID,0,VALID,96.2528,VALID,-0.101885,VALID,19.4131,VALID,106,VALID,1.4535,
2004-02-10, 00:43:00,VALID,920.38,VALID,0,VALID,96.3151,VALID,-0.0679233,VALID,19.3706,VALID,109,VALID,1.33085,
2004-02-10, 00:44:00,VALID,920.393,VALID,0,VALID,96.3749,VALID,0.0509425,VALID,19.3398,VALID,103,VALID,1.19122,
2004-02-10, 00:45:00,VALID,920.397,VALID,0,VALID,96.4309,VALID,0.0169808,VALID,19.3339,VALID,106,VALID,1.26453,
2004-02-10, 00:46:00,VALID,920.399,VALID,0,VALID,96.4181,VALID,0.0169808,VALID,19.3535,VALID,117,VALID,1.69722,
2004-02-10, 00:47:00,VALID,920.379,VALID,0,VALID,96.1155,VALID,0.0339617,VALID,19.3796,VALID,114,VALID,1.76523,
2004-02-10, 00:48:00,VALID,920.368,VALID,0,VALID,95.7582,VALID,0.0339617,VALID,19.4049,VALID,116,VALID,1.32086,
2004-02-10, 00:49:00,VALID,920.359,VALID,0,VALID,95.5763,VALID,0.0169808,VALID,19.4181,VALID,113,VALID,1.48996,
2004-02-10, 00:50:00,VALID,920.333,VALID,0,VALID,95.5687,VALID,0.0339617,VALID,19.4367,VALID,103,VALID,1.49424,
2004-02-10, 00:51:00,VALID,920.325,VALID,0,VALID,95.3309,VALID,0,VALID,19.4499,VALID,100,VALID,1.37016,
2004-02-10, 00:52:00,VALID,920.318,VALID,0,VALID,95.2127,VALID,0.0339617,VALID,19.4792,VALID,96,VALID,0.899325,
2004-02-10, 00:53:01,VALID,920.318,VALID,0,VALID,95.2254,VALID,0.0339617,VALID,19.4918,VALID,87,VALID,1.1753,
2004-02-10, 00:54:00,VALID,920.309,VALID,0,VALID,95.116,VALID,0.0339617,VALID,19.5211,VALID,102,VALID,1.002,
2004-02-10, 00:55:00,VALID,920.316,VALID,0,VALID,94.9405,VALID,0.0339617,VALID,19.5505,VALID,84,VALID,0.937872,
2004-02-10, 00:56:01,VALID,920.322,VALID,0,VALID,94.7587,VALID,0.0339617,VALID,19.5763,VALID,71,VALID,0.975694,
2004-02-10, 00:57:00,VALID,920.333,VALID,0,VALID,94.6862,VALID,0.0169808,VALID,19.5922,VALID,80,VALID,0.983613,
2004-02-10, 00:58:00,VALID,920.334,VALID,0,VALID,94.671,VALID,0,VALID,19.6081,VALID,98,VALID,0.846657,
2004-02-10, 00:59:00,VALID,920.34,VALID,0,VALID,94.5654,VALID,-0.0849042,VALID,19.6165,VALID,111,VALID,0.987571,
2004-02-10, 01:00:00,VALID,920.334,VALID,0,VALID,94.5909,VALID,-0.0679233,VALID,19.626,VALID,112,VALID,1.18448,
2004-02-10, 01:01:00,VALID,920.335,VALID,0,VALID,94.5362,VALID,-0.0849042,VALID,19.6329,VALID,109,VALID,0.834032,
2004-02-10, 01:02:01,VALID,920.321,VALID,0,VALID,94.4281,VALID,-0.0509425,VALID,19.6453,VALID,106,VALID,1.09811,
2004-02-10, 01:03:00,VALID,920.322,VALID,0,VALID,94.1293,VALID,-0.101885,VALID,19.698,VALID,95,VALID,1.2222,
2004-02-10, 01:04:00,VALID,920.3,VALID,0,VALID,93.7452,VALID,-0.0679233,VALID,19.7164,VALID,71,VALID,0.591463,
2004-02-10, 01:05:00,VALID,920.296,VALID,0,VALID,93.6066,VALID,-0.0679233,VALID,19.7462,VALID,84,VALID,0.990412,
2004-02-10, 01:06:01,VALID,920.298,VALID,0,VALID,93.5367,VALID,-0.0679233,VALID,19.7258,VALID,83,VALID,0.738467,
2004-02-10, 01:07:00,VALID,920.289,VALID,0,VALID,93.6155,VALID,-0.101885,VALID,19.7104,VALID,80,VALID,0.645089,
2004-02-10, 01:08:00,VALID,920.294,VALID,0,VALID,93.1921,VALID,-0.101885,VALID,19.6458,VALID,59,VALID,0.810764,
2004-02-10, 01:09:01,VALID,920.293,VALID,0,VALID,93.6359,VALID,-0.101885,VALID,19.5678,VALID,62,VALID,0.836319,
2004-02-10, 01:10:00,VALID,920.295,VALID,0,VALID,94.0886,VALID,-0.0849042,VALID,19.536,VALID,67,VALID,1.03867,
2004-02-10, 01:11:00,VALID,920.295,VALID,0,VALID,94.4917,VALID,-0.0339617,VALID,19.5132,VALID,88,VALID,1.19229,
2004-02-10, 01:12:00,VALID,920.284,VALID,0,VALID,94.5705,VALID,-0.0849042,VALID,19.5164,VALID,92,VALID,0.914807,
2004-02-10, 01:13:00,VALID,920.278,VALID,0,VALID,94.5476,VALID,-0.0679233,VALID,19.5259,VALID,88,VALID,0.958757,
2004-02-10, 01:14:00,VALID,920.262,VALID,0,VALID,94.498,VALID,0.0339617,VALID,19.5177,VALID,95,VALID,0.745821,
2004-02-10, 01:15:00,VALID,920.235,VALID,0,VALID,94.573,VALID,0.0509425,VALID,19.5254,VALID,86,VALID,0.885356,
2004-02-10, 01:16:00,VALID,920.242,VALID,0,VALID,94.4942,VALID,0.0509425,VALID,19.4985,VALID,75,VALID,0.657738,
2004-02-10, 01:17:00,VALID,920.232,VALID,0,VALID,93.8966,VALID,0.0339617,VALID,19.4727,VALID,36,VALID,0.696484,
2004-02-10, 01:18:00,VALID,920.221,VALID,0,VALID,93.8915,VALID,0.0339617,VALID,19.3828,VALID,36,VALID,0.525868,
2004-02-10, 01:19:00,VALID,920.219,VALID,0,VALID,94.5985,VALID,0.0509425,VALID,19.3341,VALID,37,VALID,0.455788,
2004-02-10, 01:20:01,VALID,920.227,VALID,0,VALID,95.0028,VALID,0.0169808,VALID,19.308,VALID,37,VALID,0.498365,
2004-02-10, 01:21:00,VALID,920.241,VALID,0,VALID,94.9711,VALID,0.0339617,VALID,19.2857,VALID,32,VALID,0.783203,
2004-02-10, 01:22:00,VALID,920.244,VALID,0,VALID,95.0486,VALID,0.0509425,VALID,19.2631,VALID,29,VALID,0.648619,
2004-02-10, 01:23:00,VALID,920.259,VALID,0,VALID,95.2775,VALID,0.0169808,VALID,19.2243,VALID,31,VALID,0.45585,
2004-02-10, 01:24:00,VALID,920.245,VALID,0,VALID,95.5573,VALID,0.0339617,VALID,19.202,VALID,40,VALID,0.142805,
2004-02-10, 01:25:00,VALID,920.243,VALID,0,VALID,95.3716,VALID,0.0339617,VALID,19.1953,VALID,78,VALID,0.431818,
2004-02-10, 01:26:00,VALID,920.239,VALID,0,VALID,95.0435,VALID,0.0509425,VALID,19.1503,VALID,78,VALID,0.133929,
2004-02-10, 01:27:01,VALID,920.233,VALID,0,VALID,95.1923,VALID,0.0679233,VALID,19.1017,VALID,78,VALID,0.167411,
2004-02-10, 01:28:00,VALID,920.221,VALID,0,VALID,95.4873,VALID,0.0849042,VALID,19.0758,VALID,78,VALID,0.0159801,
2004-02-10, 01:29:00,VALID,920.212,VALID,0,VALID,96.0138,VALID,-0.0169808,VALID,19.0805,VALID,78,VALID,0.261458,
2004-02-10, 01:30:00,VALID,920.216,VALID,0,VALID,96.0799,VALID,-0.0339617,VALID,19.087,VALID,126,VALID,0.451029,
2004-02-10, 01:31:00,VALID,920.221,VALID,0,VALID,96.1053,VALID,-0.0849042,VALID,19.0544,VALID,133,VALID,0.674023,
2004-02-10, 01:32:00,VALID,920.201,VALID,0,VALID,96.1117,VALID,-0.0679233,VALID,19.0154,VALID,116,VALID,0.824128,
2004-02-10, 01:33:01,VALID,920.184,VALID,0,VALID,96.3876,VALID,-0.0509425,VALID,18.9869,VALID,121,VALID,0.626635,
2004-02-10, 01:34:00,VALID,920.164,VALID,0,VALID,96.4194,VALID,-0.0509425,VALID,18.9154,VALID,131,VALID,0.926339,
2004-02-10, 01:35:00,VALID,920.143,VALID,0,VALID,96.5974,VALID,-0.0679233,VALID,18.8612,VALID,121,VALID,1.14135,
2004-02-10, 01:36:00,VALID,920.117,VALID,0,VALID,96.7513,VALID,-0.0509425,VALID,18.8026,VALID,99,VALID,0.94375,
2004-02-10, 01:37:01,VALID,920.106,VALID,0,VALID,96.956,VALID,-0.0339617,VALID,18.7641,VALID,110,VALID,1.00572,
2004-02-10, 01:38:01,VALID,920.093,VALID,0,VALID,97.3808,VALID,-0.0849042,VALID,18.7613,VALID,129,VALID,1.25686,
2004-02-10, 01:39:00,VALID,920.084,VALID,0,VALID,97.7864,VALID,-0.0849042,VALID,18.7968,VALID,130,VALID,1.5958,
2004-02-10, 01:40:01,VALID,920.102,VALID,0,VALID,97.8589,VALID,-0.0679233,VALID,18.8872,VALID,128,VALID,1.81845,
2004-02-10, 01:41:00,VALID,920.101,VALID,0,VALID,97.4329,VALID,-0.0849042,VALID,18.9576,VALID,120,VALID,1.40978,
2004-02-10, 01:42:00,VALID,920.121,VALID,0,VALID,96.9103,VALID,-0.101885,VALID,18.9968,VALID,107,VALID,1.163,
2004-02-10, 01:43:00,VALID,920.094,VALID,0,VALID,96.839,VALID,-0.101885,VALID,19.0129,VALID,122,VALID,1.05735,
2004-02-10, 01:44:00,VALID,920.089,VALID,0,VALID,96.792,VALID,-0.101885,VALID,19.0417,VALID,118,VALID,1.23189,
2004-02-10, 01:45:00,VALID,920.069,VALID,0,VALID,96.4766,VALID,-0.0849042,VALID,19.0874,VALID,109,VALID,1.10642,
2004-02-10, 01:46:01,VALID,920.067,VALID,0,VALID,96.4728,VALID,-0.0849042,VALID,19.0999,VALID,113,VALID,1.02009,
2004-02-10, 01:47:00,VALID,920.055,VALID,0,VALID,96.3558,VALID,-0.0849042,VALID,19.1393,VALID,118,VALID,1.00503,
2004-02-10, 01:48:00,VALID,920.042,VALID,0,VALID,96.305,VALID,-0.0679233,VALID,19.1453,VALID,116,VALID,0.977515,
2004-02-10, 01:49:00,VALID,920.034,VALID,0,VALID,96.2834,VALID,-0.0509425,VALID,19.1647,VALID,116,VALID,0.999047,
2004-02-10, 01:50:00,VALID,920.03,VALID,0,VALID,96.0519,VALID,-0.0339617,VALID,19.1582,VALID,108,VALID,0.910247,
2004-02-10, 01:51:01,VALID,920.009,VALID,0,VALID,96.2007,VALID,-0.0849042,VALID,19.1485,VALID,97,VALID,0.929865,
2004-02-10, 01:52:00,VALID,919.979,VALID,0,VALID,96.4398,VALID,-0.0679233,VALID,19.1649,VALID,113,VALID,1.00248,
2004-02-10, 01:53:00,VALID,919.956,VALID,0,VALID,96.2643,VALID,-0.101885,VALID,19.1942,VALID,103,VALID,0.899164,
2004-02-10, 01:54:00,VALID,919.943,VALID,0,VALID,96.1753,VALID,-0.0849042,VALID,19.2101,VALID,110,VALID,0.872396,
2004-02-10, 01:55:00,VALID,919.904,VALID,0,VALID,96.0723,VALID,-0.0849042,VALID,19.2166,VALID,122,VALID,1.2202,
2004-02-10, 01:56:01,VALID,919.897,VALID,0,VALID,95.9451,VALID,-0.0509425,VALID,19.223,VALID,113,VALID,1.0605,
2004-02-10, 01:57:00,VALID,919.902,VALID,0,VALID,95.823,VALID,-0.0509425,VALID,19.197,VALID,96,VALID,0.760417,
2004-02-10, 01:58:01,VALID,919.897,VALID,0,VALID,95.9794,VALID,0,VALID,19.2002,VALID,130,VALID,0.767078,
2004-02-10, 01:59:00,VALID,919.901,VALID,0,VALID,95.9871,VALID,-0.0509425,VALID,19.1873,VALID,140,VALID,1.1776,
2004-02-10, 02:00:00,VALID,919.906,VALID,0,VALID,96.0519,VALID,-0.0849042,VALID,19.194,VALID,113,VALID,1.01403,
2004-02-10, 02:01:00,VALID,919.9,VALID,0,VALID,96.0239,VALID,-0.0509425,VALID,19.1875,VALID,84,VALID,1.18805,
2004-02-10, 02:02:01,VALID,919.896,VALID,0,VALID,96.174,VALID,-0.0509425,VALID,19.2002,VALID,89,VALID,1.11882,
2004-02-10, 02:03:01,VALID,919.872,VALID,0,VALID,96.1155,VALID,-0.0339617,VALID,19.223,VALID,92,VALID,1.19077,
2004-02-10, 02:04:00,VALID,919.854,VALID,0,VALID,95.8472,VALID,-0.0679233,VALID,19.2288,VALID,70,VALID,1.12736,
2004-02-10, 02:05:00,VALID,919.844,VALID,0,VALID,95.7022,VALID,-0.0679233,VALID,19.229,VALID,80,VALID,1.19703,
2004-02-10, 02:06:01,VALID,919.823,VALID,0,VALID,95.6768,VALID,-0.0849042,VALID,19.2715,VALID,82,VALID,1.34861,
2004-02-10, 02:07:01,VALID,919.817,VALID,0,VALID,95.3068,VALID,-0.0849042,VALID,19.3167,VALID,74,VALID,1.27865,
2004-02-10, 02:08:00,VALID,919.798,VALID,0,VALID,94.9355,VALID,-0.0849042,VALID,19.3458,VALID,60,VALID,1.09426,
2004-02-10, 02:09:00,VALID,919.807,VALID,0,VALID,94.629,VALID,-0.0849042,VALID,19.3423,VALID,52,VALID,1.1626,
2004-02-10, 02:10:01,VALID,919.794,VALID,0,VALID,94.7269,VALID,-0.0679233,VALID,19.3428,VALID,60,VALID,1.16887,
2004-02-10, 02:11:01,VALID,919.782,VALID,0,VALID,94.7523,VALID,-0.101885,VALID,19.3465,VALID,62,VALID,1.20149,
2004-02-10, 02:12:00,VALID,919.77,VALID,0,VALID,94.7892,VALID,-0.0679233,VALID,19.3296,VALID,57,VALID,1.17351,
2004-02-10, 02:13:00,VALID,919.747,VALID,0,VALID,94.8414,VALID,-0.0849042,VALID,19.3194,VALID,53,VALID,1.11062,
2004-02-10, 02:14:00,VALID,919.729,VALID,0,VALID,94.8592,VALID,-0.0339617,VALID,19.3197,VALID,60,VALID,1.06455,
2004-02-10, 02:15:00,VALID,919.726,VALID,0,VALID,95.0474,VALID,-0.0339617,VALID,19.3065,VALID,74,VALID,1.11942,
2004-02-10, 02:16:00,VALID,919.692,VALID,0,VALID,95.2381,VALID,-0.0509425,VALID,19.2968,VALID,72,VALID,0.987571,
2004-02-10, 02:17:01,VALID,919.661,VALID,0,VALID,95.2152,VALID,-0.101885,VALID,19.3008,VALID,107,VALID,0.857292,
2004-02-10, 02:18:00,VALID,919.633,VALID,0,VALID,95.3462,VALID,-0.0679233,VALID,19.3102,VALID,119,VALID,1.26154,
2004-02-10, 02:19:00,VALID,919.61,VALID,0,VALID,95.0779,VALID,-0.0169808,VALID,19.3294,VALID,127,VALID,1.40104,
2004-02-10, 02:20:00,VALID,919.617,VALID,0,VALID,94.9825,VALID,-0.0679233,VALID,19.3547,VALID,125,VALID,1.27939,
2004-02-10, 02:21:00,VALID,919.612,VALID,0,VALID,94.7587,VALID,-0.0679233,VALID,19.3972,VALID,131,VALID,1.00345,
2004-02-10, 02:22:00,VALID,919.621,VALID,0,VALID,94.8909,VALID,-0.0509425,VALID,19.4424,VALID,136,VALID,1.19252,
2004-02-10, 02:23:00,VALID,919.633,VALID,0,VALID,94.5196,VALID,-0.0679233,VALID,19.5263,VALID,139,VALID,1.20443,
2004-02-10, 02:24:01,VALID,919.629,VALID,0,VALID,94.1992,VALID,-0.0679233,VALID,19.5937,VALID,146,VALID,1.24467,
2004-02-10, 02:25:00,VALID,919.615,VALID,0,VALID,93.88,VALID,-0.0509425,VALID,19.6684,VALID,143,VALID,1.2303,
2004-02-10, 02:26:01,VALID,919.587,VALID,0,VALID,93.4782,VALID,-0.0339617,VALID,19.7459,VALID,134,VALID,1.34801,
2004-02-10, 02:27:00,VALID,919.561,VALID,0,VALID,93.1158,VALID,-0.0509425,VALID,19.7812,VALID,130,VALID,1.24733,
2004-02-10, 02:28:00,VALID,919.537,VALID,0,VALID,93.2073,VALID,-0.0339617,VALID,19.7946,VALID,124,VALID,1.663,
2004-02-10, 02:29:01,VALID,919.514,VALID,0,VALID,92.967,VALID,0.0679233,VALID,19.8478,VALID,151,VALID,1.3457,
2004-02-10, 02:30:01,VALID,919.511,VALID,0,VALID,92.7343,VALID,0.0849042,VALID,19.8893,VALID,162,VALID,1.00167,
2004-02-10, 02:31:01,VALID,919.471,VALID,0,VALID,92.5843,VALID,0.0849042,VALID,19.9245,VALID,144,VALID,1.20967,
2004-02-10, 02:32:01,VALID,919.465,VALID,0,VALID,92.4406,VALID,0.0849042,VALID,19.9442,VALID,127,VALID,1.23746,
2004-02-10, 02:33:01,VALID,919.435,VALID,0,VALID,92.4075,VALID,0.0679233,VALID,19.974,VALID,124,VALID,1.56194,
2004-02-10, 02:34:00,VALID,919.416,VALID,0,VALID,92.3897,VALID,0.0849042,VALID,19.9695,VALID,126,VALID,2.13494,
2004-02-10, 02:35:01,VALID,919.385,VALID,0,VALID,92.2829,VALID,0.0849042,VALID,19.9894,VALID,93,VALID,1.57582,
2004-02-10, 02:36:00,VALID,919.36,VALID,0,VALID,92.3617,VALID,0.101885,VALID,19.9896,VALID,115,VALID,1.84695,
2004-02-10, 02:37:01,VALID,919.343,VALID,0,VALID,92.3795,VALID,0.101885,VALID,19.9794,VALID,98,VALID,1.269,
2004-02-10, 02:38:01,VALID,919.326,VALID,0,VALID,92.3477,VALID,0.0679233,VALID,19.9829,VALID,73,VALID,1.08353,
2004-02-10, 02:39:00,VALID,919.333,VALID,0,VALID,92.2473,VALID,0.0679233,VALID,19.9899,VALID,113,VALID,1.46457,
2004-02-10, 02:40:00,VALID,919.311,VALID,0,VALID,92.1621,VALID,0.0679233,VALID,19.9924,VALID,62,VALID,1.17054,
2004-02-10, 02:41:00,VALID,919.316,VALID,0,VALID,92.1214,VALID,0.0339617,VALID,19.9861,VALID,75,VALID,0.953299,
2004-02-10, 02:42:01,VALID,919.297,VALID,0,VALID,92.2384,VALID,0.0509425,VALID,19.9794,VALID,74,VALID,1.0206,
2004-02-10, 02:43:00,VALID,919.27,VALID,0,VALID,92.1926,VALID,0.0339617,VALID,19.9799,VALID,103,VALID,1.39444,
2004-02-10, 02:44:00,VALID,919.238,VALID,0,VALID,91.9103,VALID,0.0679233,VALID,19.9924,VALID,124,VALID,1.6449,
2004-02-10, 02:45:01,VALID,919.223,VALID,0,VALID,91.7653,VALID,0.0849042,VALID,20.0316,VALID,124,VALID,1.17578,
2004-02-10, 02:46:01,VALID,919.215,VALID,0,VALID,91.6306,VALID,0.0509425,VALID,20.0674,VALID,121,VALID,1.75949,
2004-02-10, 02:47:01,VALID,919.215,VALID,0,VALID,91.5593,VALID,0.0509425,VALID,20.0604,VALID,141,VALID,1.82177,
2004-02-10, 02:48:01,VALID,919.214,VALID,0,VALID,91.7781,VALID,0.0339617,VALID,20.058,VALID,135,VALID,1.02847,
2004-02-10, 02:49:00,VALID,919.198,VALID,0,VALID,92.0324,VALID,0.0169808,VALID,20.0249,VALID,144,VALID,0.65625,
2004-02-10, 02:50:01,VALID,919.173,VALID,0,VALID,92.2854,VALID,0.0169808,VALID,19.9867,VALID,154,VALID,0.752544,
2004-02-10, 02:51:01,VALID,919.152,VALID,0,VALID,92.4495,VALID,0.0509425,VALID,19.9377,VALID,183,VALID,0.572674,
2004-02-10, 02:52:01,VALID,919.11,VALID,0,VALID,92.6262,VALID,0.0339617,VALID,19.8925,VALID,101,VALID,0.608681,
2004-02-10, 02:53:01,VALID,919.076,VALID,0,VALID,92.864,VALID,0.0509425,VALID,19.854,VALID,88,VALID,1.07582,
2004-02-10, 02:54:01,VALID,919.029,VALID,0,VALID,92.63,VALID,0.0339617,VALID,19.8436,VALID,116,VALID,1.9077,
2004-02-10, 02:55:01,VALID,919.019,VALID,0,VALID,92.2892,VALID,0.0339617,VALID,19.9119,VALID,84,VALID,0.824314,
2004-02-10, 02:56:01,VALID,919.003,VALID,0,VALID,92.3694,VALID,0.0169808,VALID,19.9019,VALID,122,VALID,0.801339,
2004-02-10, 02:57:01,VALID,919.009,VALID,0,VALID,92.4329,VALID,0.0849042,VALID,19.8791,VALID,108,VALID,1.25781,
2004-02-10, 02:58:01,VALID,919.014,VALID,0,VALID,92.4991,VALID,0.0169808,VALID,19.8726,VALID,114,VALID,1.44034,
2004-02-10, 02:59:01,VALID,919.026,VALID,0,VALID,92.4164,VALID,0.0339617,VALID,19.896,VALID,118,VALID,1.81577,
2004-02-10, 03:00:01,VALID,919.035,VALID,0,VALID,92.1481,VALID,0.0169808,VALID,19.9476,VALID,110,VALID,1.61028,
2004-02-10, 03:01:01,VALID,919.042,VALID,0,VALID,91.8912,VALID,0.0509425,VALID,19.9953,VALID,117,VALID,1.88728,
2004-02-10, 03:02:01,VALID,919.026,VALID,0,VALID,91.6242,VALID,0.0339617,VALID,20.0338,VALID,122,VALID,1.83754,
2004-02-10, 03:03:01,VALID,918.995,VALID,0,VALID,91.4487,VALID,0.0339617,VALID,20.0279,VALID,112,VALID,1.46038,
2004-02-10, 03:04:01,VALID,918.965,VALID,0,VALID,91.8709,VALID,0.0169808,VALID,20.0085,VALID,124,VALID,2.2662,
2004-02-10, 03:05:01,VALID,918.94,VALID,0,VALID,91.9141,VALID,0.0849042,VALID,20.0088,VALID,117,VALID,1.9157,
2004-02-10, 03:06:01,VALID,918.917,VALID,0,VALID,91.8111,VALID,0.0509425,VALID,20.0279,VALID,120,VALID,1.78576,
2004-02-10, 03:07:01,VALID,918.879,VALID,0,VALID,91.8633,VALID,0.0509425,VALID,20.0246,VALID,107,VALID,1.92727,
2004-02-10, 03:08:01,VALID,918.854,VALID,0,VALID,91.8633,VALID,0.0679233,VALID,20.0147,VALID,114,VALID,2.19673,
2004-02-10, 03:09:01,VALID,918.859,VALID,0,VALID,91.8009,VALID,0.0679233,VALID,20.0383,VALID,110,VALID,1.58754,
2004-02-10, 03:10:01,VALID,918.857,VALID,0,VALID,91.8073,VALID,0.0509425,VALID,20.0281,VALID,125,VALID,1.79651,
2004-02-10, 03:11:01,VALID,918.872,VALID,0,VALID,91.6763,VALID,0.0169808,VALID,20.0311,VALID,137,VALID,1.73958,
2004-02-10, 03:12:01,VALID,918.894,VALID,0,VALID,91.478,VALID,0.0509425,VALID,20.0182,VALID,137,VALID,2.09121,
2004-02-10, 03:13:01,VALID,918.889,VALID,0,VALID,91.5326,VALID,0.0679233,VALID,20.0217,VALID,132,VALID,2.44673,
2004-02-10, 03:14:01,VALID,918.864,VALID,0,VALID,91.4894,VALID,0.0509425,VALID,20.0212,VALID,126,VALID,1.53525,
2004-02-10, 03:15:00,VALID,918.853,VALID,0,VALID,91.4004,VALID,0.0339617,VALID,20.0542,VALID,133,VALID,1.58434,
2004-02-10, 03:16:00,VALID,918.837,VALID,0,VALID,91.3788,VALID,0.0169808,VALID,20.0405,VALID,131,VALID,1.86337,
2004-02-10, 03:17:00,VALID,918.824,VALID,0,VALID,91.4843,VALID,0.0339617,VALID,20.0279,VALID,133,VALID,1.80041,
2004-02-10, 03:18:00,VALID,918.817,VALID,0,VALID,91.5682,VALID,0.0339617,VALID,20.0177,VALID,125,VALID,1.80431,
2004-02-10, 03:19:00,VALID,918.806,VALID,0,VALID,91.5212,VALID,0.0169808,VALID,20.0147,VALID,117,VALID,1.50178,
2004-02-10, 03:20:00,VALID,918.805,VALID,0,VALID,91.5708,VALID,0.0169808,VALID,20.0018,VALID,128,VALID,1.86446,
2004-02-10, 03:21:00,VALID,918.778,VALID,0,VALID,91.7501,VALID,0,VALID,19.9697,VALID,135,VALID,1.98028,
2004-02-10, 03:22:00,VALID,918.772,VALID,0,VALID,91.7908,VALID,0.0169808,VALID,19.9767,VALID,107,VALID,1.28977,
2004-02-10, 03:23:00,VALID,918.766,VALID,0,VALID,91.8277,VALID,-0.0169808,VALID,19.9668,VALID,119,VALID,2.00967,
2004-02-10, 03:24:00,VALID,918.761,VALID,0,VALID,91.6929,VALID,0.0169808,VALID,20.002,VALID,126,VALID,1.76138,
2004-02-10, 03:25:00,VALID,918.762,VALID,0,VALID,91.5657,VALID,0,VALID,20.0445,VALID,111,VALID,1.28011,
2004-02-10, 03:26:00,VALID,918.735,VALID,0,VALID,91.483,VALID,0.0339617,VALID,20.0408,VALID,117,VALID,2.34215,
2004-02-10, 03:27:00,VALID,918.726,VALID,0,VALID,91.4729,VALID,0,VALID,20.0405,VALID,108,VALID,1.68173,
2004-02-10, 03:28:00,VALID,918.695,VALID,0,VALID,91.4474,VALID,0.0169808,VALID,20.0475,VALID,117,VALID,2.24439,
2004-02-10, 03:29:00,VALID,918.692,VALID,0,VALID,91.4004,VALID,-0.0169808,VALID,20.0572,VALID,119,VALID,1.70922,
2004-02-10, 03:30:00,VALID,918.679,VALID,0,VALID,91.5403,VALID,0,VALID,20.0478,VALID,123,VALID,1.2983,
2004-02-10, 03:31:00,VALID,918.694,VALID,0,VALID,91.5187,VALID,0,VALID,20.0473,VALID,124,VALID,1.6306,
2004-02-10, 03:32:00,VALID,918.7,VALID,0,VALID,91.4881,VALID,0,VALID,20.0478,VALID,121,VALID,1.29132,
2004-02-10, 03:33:00,VALID,918.697,VALID,0,VALID,91.5377,VALID,0.0679233,VALID,20.0535,VALID,130,VALID,1.50091,
2004-02-10, 03:34:00,VALID,918.685,VALID,0,VALID,91.6433,VALID,0.0339617,VALID,20.0497,VALID,132,VALID,1.97532,